Regional Weather Roundup
Issued by NWS Charleston, SC

Current Version | Previous Version | Graphics & Text | Print | Product List | Glossary On
Versions: 1 2 3 4 5 6 7 8 9 10 11 12 13 14 15 16 17 18 19 20 21 22 23 24 25 26 27 28 29 30 31 32 33 34 35 36 37 38 39 40 41 42 43 44 45 46 47 48 49 50
000
ASUS42 KCHS 252112
RWRCHS

REGIONAL WEATHER ROUNDUP
NATIONAL WEATHER SERVICE CHARLESTON SC
500 PM EDT MON SEP 25 2017

NOTE: "FAIR" INDICATES FEW OR NO CLOUDS BELOW 12,000 FEET WITH NO
SIGNIFICANT WEATHER AND/OR OBSTRUCTIONS TO VISIBILITY.

NOT ALL STATIONS ARE QUALITY CONTROLLED. USE DATA WITH CAUTION...
ESPECIALLY DEWPOINT OBSERVATIONS.

SCZ027-030-031-034>040-042>050-252200-
...SOUTHEAST SOUTH CAROLINA...

CITY           SKY/WX    TMP DP  RH WIND       PRES   REMARKS
N CHARLESTON   PTSUNNY   81  69  67 N9        29.86S
WATERFRONT PRK   N/A     81  70  69 N9        29.71S
JOHNS ISLAND   FAIR      82  72  69 N5        29.86S
PINOPOLIS        N/A     81  72  74 N8        29.81F
MONCKS CORNER  FAIR      81  66  61 N8        29.87S
SUMMERVILLE    FAIR      82  68  61 N9        29.88S
BEAUFORT MCAS  MOSUNNY   84  69  60 N7        29.87F
BEAUFORT ARPT  MOCLDY    81  68  65 N9        29.86F
HILTON HEAD IS MOSUNNY   86  68  54 N10       29.87F
WALTERBORO     CLOUDY    81  68  65 NE5       29.88F
ALLENDALE      NOT AVBL

...SOUTHERN MIDLANDS AND PEE DEE...

CITY           SKY/WX    TMP DP  RH WIND       PRES   REMARKS
GEORGETOWN     FAIR      77  72  83 N9G16     29.87F
KINGSTREE      MOCLDY    81  68  65 N7        29.88S
ORANGEBURG     SUNNY     86  64  47 N7        29.88F
BARNWELL       FAIR      88  66  48 NE12      29.88F HX  90
AIKEN          FAIR      84  63  48 NE10      29.94S
MANNING        FAIR      82  55  39 MISG      29.88F
COLUMBIA       MOSUNNY   88  62  41 N9        29.88F
SUMTER         PTSUNNY   86  64  48 NE14      29.87S
FLORENCE       CLOUDY    80  68  66 NE13      29.89F
MYRTLE BEACH   MOSUNNY   79  70  74 N15       29.87F
N MYRTLE BEACH MOSUNNY   80  70  71 N10G20    29.85F

$$

GAZ063-065-086>088-099>101-113>116-118-119-134>141-150-252200-
...SOUTHEAST GEORGIA...

CITY           SKY/WX    TMP DP  RH WIND       PRES   REMARKS
SAVANNAH ARPT  MOSUNNY   86  66  51 N9        29.86F
HUNTER AAF     PTSUNNY   87  68  54 N7        29.83F HX  90
FORT STEWART   SUNNY     87  66  49 N7        29.84F
STATESBORO     SUNNY     87  58  37 N5        29.88S
SYLVANIA       CLEAR     88  69  53 NE7       29.88F HX  92
CLAXTON        FAIR      88  65  47 N6        29.87F HX  90

...CSRA...CENTRAL AND FAR SOUTHEAST GEORGIA...

CITY           SKY/WX    TMP DP  RH WIND       PRES   REMARKS
THOMSON        SUNNY     87  62  44 E9        29.96S
AUGUSTA-BUSH   SUNNY     91  63  39 NE9       29.90S HX  92
AUGUSTA-DANIEL SUNNY     89  62  40 N12       29.91F
SWAINSBORO     FAIR      86  61  42 NE7       29.90F
VIDALIA        SUNNY     88  64  45 N9        29.88F
EASTMAN        FAIR      89  30  11 N7        29.92S
HAZLEHURST     FAIR      89  40  17 N8        29.87F
ALMA           SUNNY     90  61  37 VRB6      29.86F HX  90
WAYCROSS       SUNNY     89  57  33 E8        29.85F
JESUP          NOT AVBL
BAXLEY         FAIR      86  59  39 N8        29.87F
BRUNSWICK      SUNNY     84  68  58 E7        29.86S
SAINT SIMONS   SUNNY     83  72  69 E9        29.85F

$$

SCZ027-028-034-036>038-045-046-048>050-GAZ119-141-252200-
...LAKE AND SUPPLEMENTAL COASTAL OBSERVATIONS...

STATION/POSITION TIME  TEMP    WIND        PRES    WAVE   SWELL
                       AIR SEA DIR/SP/G            HT/PER HT/PER/DIR
                 (UTC) (F)     (DEG/KT/KT) (MB)    (FT/S) (FT/S/D)
WINYAH BAY       1945   76     350/  6     1011.0
LAKE MURRAY      2020   86      20/  3/  8 1011.9
ACE BASIN NERRS  1945   83     350/  3     1011.0
FORT PULASKI     2042   82 81   60/  8/ 10 1011.5F
SAPELO ISLAND    2000   85        CALM     1011.0

$$

ANZ835-935-AMZ111-154-330-350-352-354-370-450-454-472-252200-
...C-MAN AND BUOY OBSERVATIONS...

STATION/POSITION TIME  TEMP    WIND        PRES    WAVE   SWELL
                       AIR SEA DIR/SP/G            HT/PER HT/PER/DIR
                 (UTC) (F)     (DEG/KT/KT) (MB)    (FT/S) (FT/S/D)
BUOY 41004       2050   76 81  350/ 17/ 21 1010.1F  10/13   8/110/13
BUOY 41008       2050   78 81   10/  6/  8 1011.0F   4/13   3/ 60/13
FOLLY BEACH CMAN 2000   81     340/  6/ 11 1012.0F
CAPERS NEARSHORE 2008   77 80   10/  8/ 12 1011.0F
FRIPP NEARSHORE  2008   80      10/ 10/ 12 1019.1R


STATION/POSITION TIME  TEMP    WIND        PRES    WAVE   SWELL
                       AIR SEA DIR/SP/G            HT/PER HT/PER/DIR
                 (UTC) (F)     (DEG/KT/KT) (MB)    (FT/S) (FT/S/D)
5E ST. MARYS GA  2030      81                N/A     5/13   3/100/13
FRYING PAN BUOY  2050   79 81  360/ 21/ 27 1008.8F  10/12   7/130/12
BUOY 41025       2050   75 79   30/ 25/ 31 1008.5F  15/14  15/140/14
CAPE LOOKOUT NC  2000   78      10/ 18/ 23 1009.4F
BUOY 41002       2050   81 81  360/ 35/ 45  993.3F  21/11  15/ 90/11
BUOY 41010       2050          330/ 16/ 19 1009.0F  11/12  10/12
ST AUGUSTINE FL  2100   80 83   30/ 16/ 18 1010.7F


$$




USA.gov is the U.S. government's official web portal to all federal, state and local government web resources and services.